CGYQB CYXU-CYXU

Flight info

Callsign CGYQB
Flight time 0h 7m
Altitude
Route VFR CIRCUITS
Aircraft C172

Departure

Time 2026-04-28 03:16
Airport London International Airport (CYXU)

Arrival

Time 2026-04-28 03:24
Airport London International Airport (CYXU)
Time Latitude Longitude Altitude Speed Heading
2026-04-28 03:11 43.03228 -81.15339 903 ft 0 kts 100°
2026-04-28 03:12 43.03228 -81.15338 903 ft 1 kts 100°
2026-04-28 03:12 43.03227 -81.15250 903 ft 13 kts 66°
2026-04-28 03:12 43.03299 -81.15200 903 ft 16 kts 324°
2026-04-28 03:13 43.03393 -81.15317 903 ft 21 kts 320°
2026-04-28 03:13 43.03493 -81.15470 903 ft 22 kts 303°
2026-04-28 03:13 43.03515 -81.15504 903 ft 0 kts 315°
2026-04-28 03:14 43.03515 -81.15505 896 ft 2 kts 318°
2026-04-28 03:14 43.03613 -81.15581 903 ft 23 kts 318°
2026-04-28 03:14 43.03746 -81.15741 903 ft 27 kts 319°
2026-04-28 03:14 43.03897 -81.15922 902 ft 28 kts 319°
2026-04-28 03:15 43.04021 -81.16013 903 ft 12 kts
2026-04-28 03:15 43.04108 -81.15980 904 ft 11 kts 40°
2026-04-28 03:15 43.04084 -81.15831 904 ft 38 kts 138°
2026-04-28 03:15 43.03782 -81.15487 1010 ft 65 kts 137°
2026-04-28 03:16 43.03425 -81.15055 1204 ft 71 kts 131°
2026-04-28 03:16 43.03089 -81.14548 1412 ft 72 kts 129°
2026-04-28 03:16 43.02815 -81.14018 1685 ft 68 kts 113°
2026-04-28 03:16 43.03030 -81.13362 1912 ft 88 kts 77°
2026-04-28 03:17 43.03376 -81.12670 1955 ft 94 kts 82°
2026-04-28 03:17 43.04851 -81.12782 2043 ft 124 kts 307°
2026-04-28 03:17 43.05490 -81.13600 2043 ft 127 kts 306°
2026-04-28 03:18 43.06135 -81.14421 2055 ft 131 kts 328°
2026-04-28 03:18 43.06903 -81.14307 1993 ft 97 kts 68°
2026-04-28 03:18 43.07021 -81.13658 1922 ft 54 kts 143°
2026-04-28 03:18 43.06653 -81.13743 1802 ft 80 kts 207°
2026-04-28 03:19 43.06571 -81.14618 1836 ft 109 kts 278°
2026-04-28 03:19 43.07220 -81.15200 1816 ft 117 kts 14°
2026-04-28 03:19 43.07771 -81.14701 1832 ft 80 kts 97°
2026-04-28 03:19 43.07555 -81.14289 1913 ft 68 kts 179°
2026-04-28 03:20 43.07244 -81.14978 1915 ft 124 kts 259°
2026-04-28 03:20 43.07815 -81.16028 1966 ft 141 kts 314°
2026-04-28 03:20 43.08565 -81.16859 2056 ft 139 kts 314°
2026-04-28 03:20 43.09324 -81.17714 2152 ft 141 kts 312°
2026-04-28 03:21 43.10074 -81.18600 2259 ft 144 kts 311°
2026-04-28 03:21 43.10621 -81.19582 2378 ft 116 kts 265°
2026-04-28 03:21 43.10590 -81.20536 2493 ft 94 kts 229°
2026-04-28 03:21 43.10278 -81.21250 2505 ft 82 kts 210°
2026-04-28 03:22 43.09909 -81.21835 2457 ft 84 kts 208°
2026-04-28 03:22 43.09508 -81.22316 2539 ft 59 kts 181°
2026-04-28 03:22 43.09194 -81.21982 2584 ft 73 kts 139°
2026-04-28 03:22 43.08855 -81.21442 2430 ft 71 kts 149°
2026-04-28 03:23 43.08521 -81.21058 2215 ft 57 kts 152°
2026-04-28 03:23 43.08225 -81.20751 2067 ft 52 kts 150°
2026-04-28 03:23 43.07932 -81.20411 1967 ft 60 kts 149°
2026-04-28 03:23 43.07586 -81.20030 1923 ft 68 kts 144°
2026-04-28 03:24 43.07291 -81.19637 1886 ft 47 kts 146°
2026-04-28 03:24 43.07064 -81.19377 1816 ft 36 kts 147°
2026-04-28 03:24 43.06871 -81.19163 1728 ft 38 kts 145°
2026-04-28 03:24 43.06616 -81.18887 1653 ft 53 kts 143°
2026-04-28 03:25 43.06329 -81.18547 1592 ft 58 kts 137°
2026-04-28 03:25 43.06035 -81.18151 1493 ft 67 kts 140°
2026-04-28 03:25 43.05599 -81.17657 1431 ft 92 kts 140°
2026-04-28 03:25 43.05185 -81.17196 1322 ft 56 kts 136°
2026-04-28 03:26 43.04925 -81.16878 1211 ft 51 kts 135°
2026-04-28 03:26 43.04662 -81.16521 1090 ft 55 kts 134°
2026-04-28 03:26 43.04373 -81.16175 1002 ft 59 kts 137°
2026-04-28 03:26 43.04050 -81.15794 914 ft 58 kts 136°
2026-04-28 03:27 43.03822 -81.15519 902 ft 44 kts 134°
2026-04-28 03:27 43.03521 -81.15178 1017 ft 64 kts 139°
2026-04-28 03:27 43.03267 -81.14668 1222 ft 70 kts 99°
2026-04-28 03:27 43.03440 -81.13975 1371 ft 82 kts 68°
2026-04-28 03:28 43.03743 -81.13256 1479 ft 94 kts 72°
2026-04-28 03:28 43.04205 -81.12592 1707 ft 105 kts 33°
2026-04-28 03:28 43.04985 -81.12602 1861 ft 123 kts 351°
2026-04-28 03:28 43.05827 -81.13050 1904 ft 137 kts 327°
2026-04-28 03:29 43.06660 -81.13770 1874 ft 146 kts 319°
2026-04-28 03:29 43.07419 -81.14688 1948 ft 136 kts 288°
2026-04-28 03:29 43.07488 -81.15764 2004 ft 107 kts 232°
2026-04-28 03:29 43.07149 -81.16687 1834 ft 113 kts 221°
2026-04-28 03:30 43.06670 -81.17402 1735 ft 93 kts 200°
2026-04-28 03:30 43.06046 -81.17623 1634 ft 98 kts 173°
2026-04-28 03:30 43.05421 -81.17388 1379 ft 77 kts 143°
2026-04-28 03:30 43.05086 -81.17042 1224 ft 56 kts 133°
2026-04-28 03:31 43.04790 -81.16666 1085 ft 58 kts 131°
2026-04-28 03:31 43.04504 -81.16332 998 ft 56 kts 134°
2026-04-28 03:31 43.04225 -81.15999 910 ft 49 kts 136°
2026-04-28 03:31 43.04101 -81.15978 904 ft 17 kts 234°
2026-04-28 03:32 43.04007 -81.16012 903 ft 12 kts 177°
2026-04-28 03:32 43.03926 -81.15960 903 ft 20 kts 134°
2026-04-28 03:32 43.03847 -81.16069 902 ft 35 kts 258°
2026-04-28 03:32 43.03728 -81.16279 903 ft 23 kts 176°
2026-04-28 03:33 43.03616 -81.16214 903 ft 14 kts 144°